User: anonymous   Login
Location: Unspecified
(0.0000°N, 0.0000°E)
Time: 17:12:24
(UTC+00:00)
Language:

Nimbus 5 - Orbit

View from above orbital plane
View from above orbital plane
View from above satellite
View from above satellite

Ground track
Ground track

The orbit data is extracted from the following two-line orbital elements,

1  6305U 72097A   19015.86995466 -.00000052 +00000-0 -12751-4 0  9997
2  6305 099.9653 284.5111 0007767 282.7568 118.3170 13.44124908260739
Epoch (UTC): 15 January 2019 20:52:44
Eccentricity: 0.0007767
inclination: 99.9653°
perigee height: 1088 km
apogee height: 1100 km
right ascension of ascending node: 284.5111°
argument of perigee: 282.7568°
revolutions per day: 13.44124908
mean anomaly at epoch: 118.3170°
orbit number at epoch: 26073

The dashed part of the orbit path shows where the satellite is in the earth's shadow,  

DLR